| time (UTC) | temp F | wind direction | speed MPH | gust MPH | rain 1hr in | rain 24hr in | rain mn in | humidity % | barometer mb |
| 20260901082026 | 66 | 188 | 0.0 | 0.0 | 0.00 | 0.00 | 0.00 | 83 | 1015.8 |
| 20260901081525 | 66 | 188 | 0.0 | 0.0 | 0.00 | 0.00 | 0.00 | 83 | 1015.9 |
| 20260901080513 | 66 | 188 | 0.0 | 0.0 | 0.00 | 0.00 | 0.00 | 83 | 1015.7 |
| 20260901080033 | 66 | 186 | 0.0 | 0.0 | 0.00 | 0.00 | 0.00 | 83 | 1015.7 |
| 20260901075525 | 66 | 186 | 0.0 | 0.0 | 0.00 | 0.00 | 0.00 | 83 | 1015.7 |
| 20260901075006 | 66 | 186 | 0.0 | 0.0 | 0.00 | 0.00 | 0.00 | 83 | 1015.7 |
| 20260901074016 | 66 | 217 | 0.0 | 0.0 | 0.00 | 0.00 | 0.00 | 83 | 1015.7 |
| 20260901073505 | 66 | 153 | 0.0 | 0.0 | 0.00 | 0.00 | 0.00 | 83 | 1015.8 |
| 20260901072514 | 66 | 209 | 0.0 | 0.0 | 0.00 | 0.00 | 0.00 | 83 | 1015.9 |
| 20260901072000 | 66 | 210 | 0.0 | 0.0 | 0.00 | 0.00 | 0.00 | 83 | 1015.9 |
| 20260901071507 | 66 | 210 | 0.0 | 4.0 | 0.00 | 0.00 | 0.00 | 83 | 1015.9 |
| 20260901070459 | 66 | 206 | 0.0 | 1.0 | 0.00 | 0.00 | 0.00 | 83 | 1016.0 |
| 20260901065524 | 66 | 207 | 1.0 | 4.0 | 0.00 | 0.00 | 0.00 | 83 | 1016.1 |
| 20260901064959 | 66 | 207 | 1.0 | 4.0 | 0.00 | 0.00 | 0.00 | 83 | 1016.2 |
| 20260901064514 | 66 | 207 | 0.0 | 2.0 | 0.00 | 0.00 | 0.00 | 83 | 1016.2 |
| 20260901064028 | 66 | 190 | 0.0 | 0.0 | 0.00 | 0.00 | 0.00 | 83 | 1016.1 |
| 20260901063508 | 66 | 219 | 0.0 | 0.0 | 0.00 | 0.00 | 0.00 | 83 | 1016.3 |
| 20260901063002 | 66 | 219 | 0.0 | 4.0 | 0.00 | 0.00 | 0.00 | 83 | 1016.3 |
| 20260901062005 | 66 | 202 | 1.0 | 5.0 | 0.00 | 0.00 | 0.00 | 83 | 1016.1 |
| 20260901060014 | 66 | 198 | 1.0 | 6.0 | 0.00 | 0.00 | 0.00 | 83 | 1016.0 |
| 20260901055509 | 66 | 135 | 1.0 | 6.0 | 0.00 | 0.01 | 0.00 | 83 | 1016.0 |
| 20260901055003 | 66 | 219 | 1.0 | 4.0 | 0.00 | 0.01 | 0.00 | 83 | 1016.1 |
| 20260901054513 | 66 | 226 | 1.0 | 4.0 | 0.00 | 0.01 | 0.00 | 83 | 1016.2 |
| 20260901054018 | 66 | 169 | 1.0 | 4.0 | 0.00 | 0.01 | 0.00 | 83 | 1016.2 |
| 20260901053503 | 66 | 189 | 1.0 | 5.0 | 0.00 | 0.01 | 0.00 | 83 | 1016.2 |
| 20260901052501 | 66 | 221 | 1.0 | 5.0 | 0.00 | 0.01 | 0.00 | 83 | 1016.4 |
| 20260901052000 | 66 | 158 | 1.0 | 4.0 | 0.00 | 0.01 | 0.00 | 83 | 1016.4 |
| 20260901051503 | 66 | 215 | 1.0 | 6.0 | 0.00 | 0.01 | 0.00 | 83 | 1016.4 |
| 20260901051006 | 66 | 185 | 1.0 | 6.0 | 0.00 | 0.01 | 0.00 | 83 | 1016.2 |
| 20260901050505 | 66 | 202 | 1.0 | 5.0 | 0.00 | 0.01 | 0.00 | 83 | 1016.2 |
| 20260901050028 | 66 | 220 | 2.0 | 6.0 | 0.00 | 0.01 | 0.00 | 83 | 1016.2 |
| 20260901045458 | 66 | 216 | 2.0 | 7.0 | 0.00 | 0.32 | 0.00 | 83 | 1016.2 |
| 20260901045004 | 66 | 212 | 2.0 | 7.0 | 0.00 | 0.32 | 0.00 | 84 | 1016.2 |
| 20260901044459 | 66 | 184 | 2.0 | 7.0 | 0.00 | 0.32 | 0.00 | 84 | 1016.3 |
| 20260901044002 | 66 | 184 | 1.0 | 5.0 | 0.00 | 0.32 | 0.00 | 84 | 1016.3 |
| 20260901043458 | 66 | 170 | 1.0 | 4.0 | 0.00 | 0.32 | 0.00 | 84 | 1016.4 |
| 20260901042534 | 66 | 235 | 0.0 | 5.0 | 0.00 | 0.32 | 0.00 | 84 | 1016.5 |
| 20260901042003 | 66 | 209 | 1.0 | 6.0 | 0.00 | 0.32 | 0.00 | 84 | 1016.5 |
| 20260901041503 | 66 | 178 | 1.0 | 6.0 | 0.00 | 0.32 | 0.00 | 84 | 1016.5 |
| 20260901041006 | 66 | 240 | 1.0 | 6.0 | 0.00 | 0.32 | 0.00 | 84 | 1016.5 |
| 20260901040502 | 66 | 171 | 1.0 | 6.0 | 0.00 | 0.32 | 0.00 | 84 | 1016.5 |
| 20260901040009 | 66 | 205 | 1.0 | 6.0 | 0.00 | 0.32 | 0.00 | 84 | 1016.6 |
| 20260901035459 | 66 | 182 | 1.0 | 5.0 | 0.00 | 0.95 | 0.32 | 84 | 1016.6 |
| 20260901035004 | 66 | 149 | 1.0 | 5.0 | 0.00 | 0.95 | 0.32 | 84 | 1016.6 |
| 20260901033505 | 66 | 238 | 0.0 | 5.0 | 0.00 | 0.95 | 0.32 | 84 | 1016.6 |
| 20260901033020 | 66 | 207 | 1.0 | 5.0 | 0.00 | 0.95 | 0.32 | 84 | 1016.6 |
| 20260901032502 | 66 | 173 | 1.0 | 6.0 | 0.00 | 0.95 | 0.32 | 84 | 1016.6 |
| 20260901032007 | 66 | 189 | 1.0 | 6.0 | 0.00 | 0.95 | 0.32 | 84 | 1016.6 |
| 20260901031024 | 66 | 178 | 1.0 | 5.0 | 0.00 | 0.95 | 0.32 | 84 | 1016.6 |
| 20260901025001 | 66 | 179 | 1.0 | 5.0 | 0.00 | 0.95 | 0.32 | 83 | 1016.6 |
| 20260901024518 | 66 | 180 | 1.0 | 3.0 | 0.00 | 0.95 | 0.32 | 83 | 1016.6 |
| 20260901023500 | 66 | 142 | 1.0 | 6.0 | 0.00 | 0.95 | 0.32 | 82 | 1016.7 |
| 20260901023021 | 66 | 204 | 0.0 | 4.0 | 0.00 | 0.95 | 0.32 | 82 | 1016.8 |
| 20260901022523 | 66 | 207 | 1.0 | 5.0 | 0.00 | 0.95 | 0.32 | 82 | 1016.8 |
| 20260901022000 | 66 | 192 | 1.0 | 5.0 | 0.00 | 0.95 | 0.32 | 81 | 1016.8 |
| 20260901021507 | 66 | 188 | 1.0 | 5.0 | 0.00 | 0.95 | 0.32 | 81 | 1016.8 |
| 20260901021000 | 66 | 197 | 1.0 | 4.0 | 0.00 | 0.95 | 0.32 | 80 | 1016.9 |
| 20260901020512 | 66 | 203 | 1.0 | 4.0 | 0.00 | 0.95 | 0.32 | 80 | 1016.9 |
| 20260901020021 | 67 | 176 | 1.0 | 4.0 | 0.00 | 0.95 | 0.32 | 80 | 1016.8 |
| 20260901014458 | 67 | 175 | 0.0 | 1.0 | 0.00 | 0.95 | 0.32 | 79 | 1016.9 |
| 20260901014006 | 67 | 175 | 0.0 | 2.0 | 0.00 | 0.95 | 0.32 | 79 | 1016.8 |
| 20260901013505 | 67 | 175 | 1.0 | 4.0 | 0.00 | 0.95 | 0.32 | 79 | 1016.9 |
| 20260901013006 | 67 | 173 | 1.0 | 5.0 | 0.00 | 0.95 | 0.32 | 79 | 1016.9 |
| 20260901012504 | 67 | 172 | 1.0 | 5.0 | 0.00 | 0.95 | 0.32 | 79 | 1016.9 |
| 20260901012010 | 67 | 185 | 1.0 | 4.0 | 0.00 | 0.95 | 0.32 | 79 | 1016.8 |
| 20260901011513 | 67 | 216 | 2.0 | 6.0 | 0.00 | 0.95 | 0.32 | 79 | 1016.8 |
| 20260901011033 | 67 | 136 | 2.0 | 6.0 | 0.00 | 0.95 | 0.32 | 78 | 1016.8 |
| 20260901010014 | 67 | 136 | 2.0 | 8.0 | 0.00 | 0.95 | 0.32 | 78 | 1016.8 |
| 20260901005513 | 67 | 154 | 3.0 | 8.0 | 0.00 | 0.95 | 0.32 | 78 | 1016.7 |
| 20260901005003 | 67 | 169 | 2.0 | 6.0 | 0.00 | 0.95 | 0.32 | 78 | 1016.7 |
| 20260901004503 | 67 | 138 | 2.0 | 7.0 | 0.00 | 0.95 | 0.32 | 78 | 1016.8 |
| 20260901004011 | 67 | 142 | 2.0 | 7.0 | 0.00 | 0.95 | 0.32 | 78 | 1016.8 |
| 20260901003506 | 67 | 164 | 2.0 | 6.0 | 0.00 | 0.95 | 0.32 | 78 | 1016.7 |
| 20260901003031 | 67 | 176 | 2.0 | 6.0 | 0.00 | 0.95 | 0.32 | 78 | 1016.8 |
| 20260901002503 | 67 | 149 | 2.0 | 6.0 | 0.00 | 0.95 | 0.32 | 78 | 1016.8 |
| 20260901002005 | 67 | 143 | 2.0 | 7.0 | 0.00 | 0.95 | 0.32 | 78 | 1016.8 |
| 20260901000505 | 67 | 180 | 2.0 | 6.0 | 0.00 | 0.95 | 0.32 | 76 | 1017.0 |
| 20260901000010 | 67 | 189 | 1.0 | 6.0 | 0.00 | 0.95 | 0.32 | 76 | 1016.9 |
| 20260831235506 | 67 | 168 | 1.0 | 4.0 | 0.00 | 0.95 | 0.32 | 74 | 1016.9 |
| 20260831235054 | 67 | 175 | 1.0 | 4.0 | 0.00 | 0.95 | 0.32 | 74 | 1016.9 |
| 20260831234501 | 67 | 168 | 1.0 | 4.0 | 0.00 | 0.95 | 0.32 | 73 | 1016.8 |
| 20260831234001 | 67 | 169 | 1.0 | 5.0 | 0.00 | 0.95 | 0.32 | 72 | 1016.9 |
| 20260831233512 | 67 | 173 | 2.0 | 5.0 | 0.00 | 0.95 | 0.32 | 72 | 1016.9 |
| 20260831233029 | 67 | 169 | 2.0 | 6.0 | 0.00 | 0.95 | 0.32 | 71 | 1016.9 |
| 20260831232004 | 68 | 142 | 3.0 | 7.0 | 0.00 | 0.95 | 0.32 | 70 | 1016.9 |
| 20260831231503 | 68 | 151 | 2.0 | 6.0 | 0.00 | 0.95 | 0.32 | 69 | 1016.9 |
| 20260831230518 | 68 | 153 | 3.0 | 6.0 | 0.00 | 0.95 | 0.32 | 69 | 1016.9 |
| 20260831230008 | 68 | 135 | 3.0 | 6.0 | 0.00 | 0.95 | 0.32 | 68 | 1017.0 |
| 20260831225509 | 69 | 104 | 2.0 | 8.0 | 0.00 | 0.95 | 0.32 | 68 | 1017.0 |
| 20260831225006 | 69 | 135 | 3.0 | 8.0 | 0.00 | 0.95 | 0.32 | 67 | 1017.1 |
| 20260831224508 | 69 | 142 | 3.0 | 7.0 | 0.00 | 0.95 | 0.32 | 67 | 1017.1 |
| 20260831224025 | 69 | 144 | 4.0 | 7.0 | 0.00 | 0.95 | 0.32 | 66 | 1017.0 |
| 20260831223503 | 69 | 135 | 4.0 | 8.0 | 0.00 | 0.95 | 0.32 | 65 | 1017.0 |
| 20260831223021 | 69 | 131 | 4.0 | 8.0 | 0.00 | 0.95 | 0.32 | 65 | 1017.0 |
| 20260831222508 | 69 | 130 | 4.0 | 8.0 | 0.00 | 0.95 | 0.32 | 64 | 1017.0 |
| 20260831222002 | 70 | 151 | 4.0 | 8.0 | 0.00 | 0.95 | 0.32 | 64 | 1017.0 |
| 20260831221507 | 70 | 137 | 3.0 | 7.0 | 0.00 | 0.95 | 0.32 | 64 | 1017.0 |
| 20260831221000 | 70 | 134 | 3.0 | 7.0 | 0.00 | 0.95 | 0.32 | 64 | 1017.0 |
| 20260831220505 | 70 | 156 | 3.0 | 5.0 | 0.00 | 0.95 | 0.32 | 65 | 1017.1 |
| 20260831220009 | 71 | 140 | 3.0 | 6.0 | 0.00 | 0.95 | 0.32 | 64 | 1017.1 |
| 20260831215458 | 71 | 134 | 4.0 | 8.0 | 0.00 | 0.95 | 0.32 | 64 | 1017.1 |
| 20260831215000 | 71 | 144 | 4.0 | 8.0 | 0.00 | 0.95 | 0.32 | 64 | 1017.2 |
| 20260831214027 | 71 | 96 | 3.0 | 6.0 | 0.00 | 0.95 | 0.32 | 64 | 1017.3 |
| 20260831213515 | 71 | 137 | 3.0 | 6.0 | 0.00 | 0.95 | 0.32 | 64 | 1017.3 |
| 20260831212509 | 71 | 165 | 3.0 | 6.0 | 0.00 | 0.95 | 0.32 | 64 | 1017.1 |
| 20260831212031 | 71 | 170 | 4.0 | 7.0 | 0.00 | 0.95 | 0.32 | 64 | 1017.1 |
| 20260831211504 | 71 | 111 | 3.0 | 7.0 | 0.00 | 0.95 | 0.32 | 63 | 1017.1 |
| 20260831211004 | 71 | 152 | 3.0 | 6.0 | 0.00 | 0.95 | 0.32 | 63 | 1017.1 |
| 20260831210504 | 71 | 89 | 3.0 | 6.0 | 0.00 | 0.95 | 0.32 | 62 | 1017.1 |
| 20260831210006 | 72 | 159 | 4.0 | 6.0 | 0.00 | 0.95 | 0.32 | 61 | 1017.1 |
| 20260831205502 | 72 | 153 | 3.0 | 5.0 | 0.00 | 0.95 | 0.32 | 60 | 1017.2 |
| 20260831205001 | 72 | 169 | 4.0 | 8.0 | 0.00 | 0.95 | 0.32 | 61 | 1017.0 |
| 20260831203027 | 71 | 151 | 4.0 | 7.0 | 0.00 | 0.95 | 0.32 | 61 | 1017.3 |
| 20260831202500 | 71 | 113 | 4.0 | 7.0 | 0.00 | 0.95 | 0.32 | 61 | 1017.2 |
| 20260831201527 | 71 | 111 | 4.0 | 8.0 | 0.00 | 0.95 | 0.32 | 63 | 1017.2 |
| 20260831201023 | 71 | 88 | 4.0 | 8.0 | 0.00 | 0.95 | 0.32 | 64 | 1017.3 |
| 20260831200511 | 71 | 169 | 5.0 | 9.0 | 0.00 | 0.95 | 0.32 | 63 | 1017.3 |
| 20260831195502 | 72 | 153 | 3.0 | 7.0 | 0.00 | 0.95 | 0.32 | 63 | 1017.4 |
| 20260831195029 | 72 | 107 | 3.0 | 6.0 | 0.00 | 0.95 | 0.32 | 64 | 1017.4 |
| 20260831194505 | 72 | 148 | 3.0 | 6.0 | 0.00 | 0.95 | 0.32 | 62 | 1017.5 |
| 20260831194024 | 72 | 157 | 3.0 | 6.0 | 0.00 | 0.95 | 0.32 | 63 | 1017.3 |
| 20260831193503 | 72 | 124 | 2.0 | 6.0 | 0.00 | 0.95 | 0.32 | 62 | 1017.4 |
| 20260831193030 | 72 | 139 | 2.0 | 6.0 | 0.00 | 0.95 | 0.32 | 62 | 1017.5 |
| 20260831192514 | 72 | 80 | 2.0 | 5.0 | 0.00 | 0.95 | 0.32 | 64 | 1017.4 |
| 20260831192006 | 73 | 111 | 2.0 | 6.0 | 0.00 | 0.95 | 0.32 | 64 | 1017.6 |
| 20260831191502 | 73 | 65 | 1.0 | 6.0 | 0.00 | 0.95 | 0.32 | 64 | 1017.6 |
| 20260831190959 | 72 | 112 | 1.0 | 2.0 | 0.00 | 0.95 | 0.32 | 64 | 1017.8 |
| 20260831190504 | 72 | 113 | 1.0 | 2.0 | 0.00 | 0.95 | 0.32 | 63 | 1017.8 |
| 20260831190000 | 73 | 113 | 1.0 | 4.0 | 0.00 | 0.95 | 0.32 | 64 | 1017.8 |
| 20260831185510 | 73 | 78 | 1.0 | 3.0 | 0.00 | 0.95 | 0.32 | 63 | 1017.9 |
| 20260831185018 | 73 | 78 | 1.0 | 4.0 | 0.00 | 0.95 | 0.32 | 62 | 1018.0 |
| 20260831184505 | 73 | 93 | 1.0 | 2.0 | 0.00 | 0.95 | 0.32 | 62 | 1018.1 |
| 20260831184029 | 73 | 92 | 1.0 | 2.0 | 0.00 | 0.95 | 0.32 | 63 | 1018.1 |
| 20260831183505 | 73 | 95 | 1.0 | 4.0 | 0.00 | 0.95 | 0.32 | 65 | 1018.0 |
| 20260831183021 | 73 | 95 | 1.0 | 7.0 | 0.00 | 0.95 | 0.32 | 63 | 1018.1 |
| 20260831182501 | 73 | 103 | 2.0 | 7.0 | 0.00 | 0.95 | 0.32 | 63 | 1018.1 |
| 20260831181005 | 73 | 109 | 2.0 | 3.0 | 0.00 | 0.95 | 0.32 | 62 | 1018.2 |
| 20260831180515 | 73 | 46 | 2.0 | 5.0 | 0.00 | 0.95 | 0.32 | 60 | 1018.1 |
| 20260831175500 | 73 | 65 | 2.0 | 6.0 | 0.00 | 0.95 | 0.32 | 61 | 1018.3 |
| 20260831175002 | 73 | 148 | 2.0 | 5.0 | 0.00 | 0.95 | 0.32 | 62 | 1018.4 |
| 20260831174514 | 72 | 90 | 2.0 | 5.0 | 0.00 | 0.95 | 0.32 | 62 | 1018.4 |
| 20260831174026 | 72 | 169 | 3.0 | 6.0 | 0.00 | 0.95 | 0.32 | 63 | 1018.4 |
| 20260831173522 | 73 | 152 | 3.0 | 6.0 | 0.00 | 0.95 | 0.32 | 62 | 1018.4 |
| 20260831173028 | 73 | 167 | 1.0 | 5.0 | 0.00 | 0.95 | 0.32 | 64 | 1018.5 |
| 20260831172500 | 72 | 127 | 1.0 | 5.0 | 0.00 | 0.95 | 0.32 | 63 | 1018.5 |
| 20260831172005 | 72 | 119 | 2.0 | 5.0 | 0.00 | 0.95 | 0.32 | 65 | 1018.4 |
| 20260831171556 | 72 | 121 | 1.0 | 4.0 | 0.00 | 0.95 | 0.32 | 65 | 1018.5 |
| 20260831171016 | 72 | 307 | 1.0 | 4.0 | 0.00 | 0.95 | 0.32 | 64 | 1018.5 |
| 20260831170500 | 73 | 320 | 1.0 | 4.0 | 0.00 | 0.95 | 0.32 | 64 | 1018.5 |
| 20260831170014 | 73 | 174 | 1.0 | 5.0 | 0.00 | 0.95 | 0.32 | 64 | 1018.5 |
| 20260831165459 | 73 | 138 | 2.0 | 5.0 | 0.00 | 0.95 | 0.32 | 63 | 1018.5 |
| 20260831165028 | 74 | 97 | 1.0 | 4.0 | 0.00 | 0.95 | 0.32 | 63 | 1018.6 |
| 20260831164509 | 74 | 47 | 1.0 | 5.0 | 0.00 | 0.95 | 0.32 | 61 | 1018.7 |
| 20260831164000 | 74 | 38 | 2.0 | 5.0 | 0.00 | 0.95 | 0.32 | 62 | 1018.6 |
| 20260831163536 | 75 | 169 | 2.0 | 6.0 | 0.00 | 0.95 | 0.32 | 63 | 1018.5 |
| 20260831162517 | 75 | 138 | 2.0 | 5.0 | 0.00 | 0.95 | 0.32 | 62 | 1018.7 |
| 20260831162021 | 75 | 178 | 2.0 | 5.0 | 0.00 | 0.95 | 0.32 | 61 | 1018.7 |
| 20260831161510 | 76 | 168 | 2.0 | 7.0 | 0.00 | 0.95 | 0.32 | 60 | 1018.7 |
| 20260831161001 | 76 | 95 | 3.0 | 7.0 | 0.00 | 0.95 | 0.32 | 61 | 1018.8 |
| 20260831160513 | 76 | 101 | 2.0 | 5.0 | 0.00 | 0.95 | 0.32 | 62 | 1018.9 |
| 20260831160036 | 76 | 97 | 2.0 | 5.0 | 0.00 | 0.95 | 0.32 | 61 | 1018.9 |
| 20260831155516 | 75 | 215 | 2.0 | 5.0 | 0.00 | 0.95 | 0.32 | 61 | 1019.0 |
| 20260831155040 | 75 | 115 | 2.0 | 5.0 | 0.00 | 0.95 | 0.32 | 64 | 1019.0 |
| 20260831154007 | 75 | 237 | 2.0 | 5.0 | 0.00 | 0.95 | 0.32 | 61 | 1019.0 |
| 20260831153513 | 75 | 346 | 2.0 | 5.0 | 0.00 | 0.95 | 0.32 | 60 | 1019.1 |
| 20260831153008 | 75 | 98 | 1.0 | 6.0 | 0.00 | 0.95 | 0.32 | 63 | 1019.2 |
| 20260831152503 | 75 | 132 | 1.0 | 6.0 | 0.00 | 0.95 | 0.32 | 62 | 1019.2 |
| 20260831152005 | 75 | 163 | 2.0 | 5.0 | 0.00 | 0.95 | 0.32 | 61 | 1019.1 |
| 20260831151502 | 75 | 111 | 2.0 | 5.0 | 0.00 | 0.95 | 0.32 | 63 | 1019.1 |
| 20260831151002 | 75 | 136 | 2.0 | 5.0 | 0.00 | 0.95 | 0.32 | 63 | 1019.2 |
| 20260831150505 | 75 | 104 | 2.0 | 5.0 | 0.00 | 0.95 | 0.32 | 63 | 1019.1 |
| 20260831150001 | 74 | 288 | 2.0 | 5.0 | 0.00 | 0.95 | 0.32 | 64 | 1019.1 |
| 20260831145544 | 74 | 82 | 2.0 | 5.0 | 0.00 | 0.95 | 0.32 | 64 | 1019.0 |
| 20260831145020 | 74 | 340 | 2.0 | 5.0 | 0.00 | 0.95 | 0.32 | 63 | 1018.9 |
| 20260831144534 | 74 | 348 | 1.0 | 4.0 | 0.00 | 0.95 | 0.32 | 64 | 1018.9 |
| 20260831144017 | 73 | 157 | 1.0 | 5.0 | 0.00 | 0.95 | 0.32 | 64 | 1018.8 |
| 20260831143514 | 73 | 166 | 2.0 | 6.0 | 0.00 | 0.95 | 0.32 | 65 | 1018.9 |
| 20260831143027 | 73 | 97 | 2.0 | 6.0 | 0.00 | 0.95 | 0.32 | 67 | 1018.8 |
| 20260831142510 | 73 | 171 | 1.0 | 5.0 | 0.00 | 0.95 | 0.32 | 64 | 1018.7 |
| 20260831142025 | 73 | 168 | 1.0 | 5.0 | 0.00 | 0.95 | 0.32 | 64 | 1018.7 |
| 20260831141504 | 73 | 319 | 1.0 | 4.0 | 0.00 | 0.95 | 0.32 | 66 | 1018.7 |
| 20260831140508 | 73 | 169 | 1.0 | 5.0 | 0.00 | 0.95 | 0.32 | 68 | 1018.7 |
| 20260831140006 | 73 | 136 | 1.0 | 5.0 | 0.00 | 0.95 | 0.32 | 67 | 1018.6 |
| 20260831135459 | 73 | 98 | 1.0 | 5.0 | 0.00 | 0.95 | 0.32 | 69 | 1018.6 |
| 20260831135030 | 73 | 350 | 1.0 | 5.0 | 0.00 | 0.95 | 0.32 | 68 | 1018.6 |
| 20260831134529 | 72 | 229 | 1.0 | 4.0 | 0.00 | 0.95 | 0.32 | 71 | 1018.6 |
| 20260831134008 | 72 | 232 | 1.0 | 2.0 | 0.00 | 0.95 | 0.32 | 70 | 1018.6 |
| 20260831133504 | 71 | 241 | 1.0 | 5.0 | 0.00 | 0.95 | 0.32 | 73 | 1018.5 |
| 20260831133028 | 71 | 342 | 1.0 | 5.0 | 0.00 | 0.95 | 0.32 | 73 | 1018.5 |
| 20260831132512 | 71 | 155 | 1.0 | 5.0 | 0.00 | 0.95 | 0.32 | 77 | 1018.5 |
| 20260831132025 | 70 | 142 | 1.0 | 5.0 | 0.00 | 0.95 | 0.32 | 79 | 1018.5 |
| 20260831131509 | 70 | 67 | 1.0 | 4.0 | 0.00 | 0.95 | 0.32 | 80 | 1018.6 |
| 20260831131023 | 69 | 67 | 1.0 | 4.0 | 0.00 | 0.95 | 0.32 | 80 | 1018.5 |
| 20260831130541 | 69 | 184 | 1.0 | 2.0 | 0.00 | 0.95 | 0.32 | 82 | 1018.5 |
| 20260831130028 | 68 | 155 | 0.0 | 2.0 | 0.00 | 0.95 | 0.32 | 84 | 1018.5 |
| 20260831125005 | 67 | 151 | 0.0 | 2.0 | 0.00 | 0.95 | 0.32 | 87 | 1018.4 |
| 20260831124524 | 67 | 150 | 0.0 | 2.0 | 0.00 | 0.95 | 0.32 | 88 | 1018.3 |
| 20260831124030 | 67 | 123 | 0.0 | 4.0 | 0.00 | 0.95 | 0.32 | 88 | 1018.3 |
| 20260831123459 | 66 | 123 | 1.0 | 4.0 | 0.00 | 0.95 | 0.32 | 89 | 1018.2 |
| 20260831123001 | 66 | 326 | 1.0 | 3.0 | 0.00 | 0.95 | 0.32 | 89 | 1018.1 |
| 20260831122503 | 66 | 237 | 1.0 | 3.0 | 0.00 | 0.95 | 0.32 | 90 | 1018.1 |
| 20260831122025 | 66 | 323 | 0.0 | 4.0 | 0.00 | 0.95 | 0.32 | 90 | 1018.1 |
| 20260831121501 | 66 | 323 | 0.0 | 4.0 | 0.00 | 0.95 | 0.32 | 90 | 1018.1 |
| 20260831121001 | 66 | 323 | 0.0 | 4.0 | 0.00 | 0.95 | 0.32 | 90 | 1018.0 |
| 20260831120500 | 65 | 293 | 0.0 | 1.0 | 0.00 | 0.95 | 0.32 | 90 | 1018.1 |
| 20260831115540 | 65 | 293 | 0.0 | 2.0 | 0.00 | 0.95 | 0.32 | 90 | 1017.9 |
| 20260831114959 | 65 | 293 | 0.0 | 2.0 | 0.00 | 0.95 | 0.32 | 90 | 1017.9 |
| 20260831114503 | 65 | 254 | 0.0 | 0.0 | 0.00 | 0.95 | 0.32 | 90 | 1017.9 |
| 20260831114008 | 65 | 254 | 0.0 | 0.0 | 0.00 | 0.95 | 0.32 | 90 | 1017.8 |
| 20260831113506 | 65 | 254 | 0.0 | 0.0 | 0.00 | 0.95 | 0.32 | 90 | 1017.8 |
| 20260831112958 | 65 | 254 | 0.0 | 0.0 | 0.00 | 0.95 | 0.32 | 90 | 1017.8 |
| 20260831112002 | 65 | 254 | 0.0 | 1.0 | 0.00 | 0.95 | 0.32 | 90 | 1017.7 |
| 20260831110507 | 64 | 254 | 0.0 | 0.0 | 0.00 | 0.95 | 0.32 | 90 | 1017.5 |
| 20260831105500 | 64 | 254 | 0.0 | 0.0 | 0.00 | 0.95 | 0.32 | 89 | 1017.4 |
| 20260831105030 | 64 | 254 | 0.0 | 0.0 | 0.00 | 0.95 | 0.32 | 89 | 1017.3 |
| 20260831104502 | 64 | 254 | 0.0 | 0.0 | 0.00 | 0.95 | 0.32 | 89 | 1017.4 |
| 20260831104025 | 64 | 254 | 0.0 | 0.0 | 0.00 | 0.95 | 0.32 | 89 | 1017.3 |
| 20260831103458 | 64 | 254 | 0.0 | 0.0 | 0.00 | 0.95 | 0.32 | 89 | 1017.2 |
| 20260831103005 | 64 | 254 | 0.0 | 0.0 | 0.00 | 0.95 | 0.32 | 89 | 1017.1 |
| 20260831102505 | 64 | 254 | 0.0 | 0.0 | 0.00 | 0.95 | 0.32 | 89 | 1017.1 |
| 20260831102024 | 65 | 254 | 0.0 | 0.0 | 0.00 | 0.95 | 0.32 | 89 | 1017.0 |
| 20260831101500 | 65 | 254 | 0.0 | 0.0 | 0.00 | 0.95 | 0.32 | 89 | 1016.9 |
| 20260831100505 | 65 | 254 | 0.0 | 0.0 | 0.00 | 0.95 | 0.32 | 89 | 1016.8 |
| 20260831100021 | 65 | 254 | 0.0 | 0.0 | 0.00 | 0.95 | 0.32 | 89 | 1016.7 |
| 20260831095520 | 65 | 254 | 0.0 | 0.0 | 0.00 | 0.95 | 0.32 | 89 | 1016.8 |
| 20260831095003 | 65 | 254 | 0.0 | 0.0 | 0.00 | 0.95 | 0.32 | 89 | 1016.7 |
| 20260831094508 | 65 | 254 | 0.0 | 0.0 | 0.00 | 0.95 | 0.32 | 89 | 1016.6 |
| 20260831094011 | 65 | 254 | 0.0 | 0.0 | 0.00 | 0.95 | 0.32 | 89 | 1016.6 |
| 20260831093501 | 65 | 254 | 0.0 | 0.0 | 0.00 | 0.95 | 0.32 | 89 | 1016.5 |
| 20260831093000 | 65 | 254 | 0.0 | 0.0 | 0.00 | 0.95 | 0.32 | 89 | 1016.5 |
| 20260831092515 | 65 | 254 | 0.0 | 0.0 | 0.00 | 0.95 | 0.32 | 89 | 1016.4 |
| 20260831092001 | 65 | 254 | 0.0 | 0.0 | 0.00 | 0.95 | 0.32 | 89 | 1016.5 |
| 20260831091502 | 65 | 254 | 0.0 | 0.0 | 0.00 | 0.95 | 0.32 | 89 | 1016.5 |
| 20260831091011 | 65 | 254 | 0.0 | 0.0 | 0.00 | 0.95 | 0.32 | 89 | 1016.4 |
| 20260831090005 | 66 | 254 | 0.0 | 0.0 | 0.00 | 0.95 | 0.32 | 89 | 1016.4 |
| 20260831085503 | 66 | 254 | 0.0 | 0.0 | 0.00 | 0.95 | 0.32 | 89 | 1016.4 |
| 20260831084959 | 66 | 254 | 0.0 | 0.0 | 0.00 | 0.95 | 0.32 | 89 | 1016.3 |
| 20260831084507 | 66 | 254 | 0.0 | 0.0 | 0.00 | 0.95 | 0.32 | 89 | 1016.2 |
| 20260831084024 | 66 | 254 | 0.0 | 0.0 | 0.00 | 0.95 | 0.32 | 89 | 1016.2 |